• In Russia
  • List of Countries
  • For 7 days
  • Water Temperature
  • Satellite Maps
  • Weather Map
  • Weather Widgets
  • user-avatar
    Login

    Hourly Weather Ganja

    Today, 28 February, Tuesday

    Time Temperature Precipitation Wind Pressure Humidity
    00:00 +4°C° 0 mm 1 mps 729 mmHg 73%
    01:00 +4°C° 0 mm 1 mps 729 mmHg 73%
    02:00 +4°C° 0 mm 1 mps 729 mmHg 73%
    03:00 +3°C° 0 mm 2 mps 728 mmHg 74%
    04:00 +3°C° 0 mm 2 mps 728 mmHg 74%
    05:00 +3°C° 0 mm 2 mps 728 mmHg 75%
    06:00 +2°C° 0 mm 2 mps 729 mmHg 76%
    07:00 +5°C° 0 mm 1 mps 729 mmHg 71%
    08:00 +7°C° 0 mm 1 mps 729 mmHg 65%
    09:00 +9°C° 0 mm 1 mps 729 mmHg 60%
    10:00 +10°C° 0 mm 1 mps 729 mmHg 58%
    11:00 +12°C° 0 mm 1 mps 729 mmHg 55%
    12:00 +13°C° 0 mm 1 mps 729 mmHg 53%
    13:00 +13°C° 0 mm 1 mps 729 mmHg 53%
    14:00 +14°C° 0 mm 1 mps 729 mmHg 52%
    15:00 +14°C° 0 mm 1 mps 729 mmHg 52%
    16:00 +12°C° 0 mm 1 mps 729 mmHg 57%
    17:00 +11°C° 0 mm 1 mps 729 mmHg 63%
    18:00 +8°C° 0 mm 2 mps 730 mmHg 68%
    19:00 +7°C° 0 mm 2 mps 730 mmHg 70%
    20:00 +7°C° 0 mm 2 mps 730 mmHg 71%
    21:00 +6°C° 0 mm 2 mps 731 mmHg 73%
    22:00 +7°C° 0 mm 1 mps 731 mmHg 75%
    23:00 +7°C° 0 mm 1 mps 731 mmHg 76%

    Tomorrow, 1 March, Wednesday

    Time Temperature Precipitation Wind Pressure Humidity
    00:00 +6°C° 0 mm 1 mps 731 mmHg 77%
    01:00 +6°C° 0 mm 1 mps 731 mmHg 79%
    02:00 +5°C° 0 mm 1 mps 731 mmHg 80%
    03:00 +5°C° 0 mm 1 mps 731 mmHg 82%
    04:00 +5°C° 0 mm 1 mps 731 mmHg 83%
    05:00 +3°C° 0 mm 0 mps 731 mmHg 84%
    06:00 +3°C° 0 mm 0 mps 731 mmHg 85%
    07:00 +5°C° 0 mm 0 mps 731 mmHg 77%
    08:00 +7°C° 0 mm 0 mps 731 mmHg 70%
    09:00 +9°C° 0 mm 0 mps 731 mmHg 63%
    10:00 +11°C° 0 mm 1 mps 731 mmHg 60%
    11:00 +12°C° 0 mm 1 mps 730 mmHg 58%
    12:00 +13°C° 0 mm 1 mps 730 mmHg 55%
    13:00 +14°C° 0 mm 1 mps 729 mmHg 55%
    14:00 +14°C° 0 mm 1 mps 729 mmHg 55%
    15:00 +14°C° 0 mm 1 mps 729 mmHg 55%
    16:00 +13°C° 0 mm 1 mps 728 mmHg 62%
    17:00 +11°C° 0 mm 1 mps 728 mmHg 68%
    18:00 +9°C° 0 mm 1 mps 728 mmHg 74%
    19:00 +9°C° 0 mm 1 mps 729 mmHg 76%
    20:00 +9°C° 0 mm 1 mps 729 mmHg 78%
    21:00 +8°C° 0 mm 1 mps 729 mmHg 80%
    22:00 +8°C° 0 mm 1 mps 729 mmHg 81%
    23:00 +7°C° 0 mm 1 mps 729 mmHg 82%

    Day after tomorrow, 2 March, Thursday

    Time Temperature Precipitation Wind Pressure Humidity
    00:00 +7°C° 0 mm 1 mps 728 mmHg 83%
    01:00 +6°C° 0 mm 1 mps 728 mmHg 85%
    02:00 +5°C° 0 mm 0 mps 728 mmHg 86%
    03:00 +5°C° 0 mm 0 mps 727 mmHg 87%
    04:00 +4°C° 0 mm 0 mps 727 mmHg 86%
    05:00 +4°C° 0 mm 0 mps 727 mmHg 86%
    06:00 +4°C° 0 mm 0 mps 727 mmHg 85%
    07:00 +6°C° 0 mm 0 mps 727 mmHg 79%
    08:00 +9°C° 0 mm 1 mps 727 mmHg 72%
    09:00 +11°C° 0 mm 1 mps 727 mmHg 65%
    10:00 +12°C° 0 mm 1 mps 727 mmHg 62%
    11:00 +13°C° 0 mm 1 mps 726 mmHg 60%
    12:00 +14°C° 0 mm 2 mps 725 mmHg 57%
    13:00 +14°C° 0 mm 2 mps 725 mmHg 57%
    14:00 +14°C° 0 mm 2 mps 724 mmHg 58%
    15:00 +14°C° 0 mm 2 mps 724 mmHg 58%
    16:00 +13°C° 0 mm 2 mps 724 mmHg 64%
    17:00 +10°C° 0 mm 2 mps 724 mmHg 70%
    18:00 +9°C° 0 mm 2 mps 724 mmHg 76%
    19:00 +10°C° 0 mm 1 mps 724 mmHg 77%
    20:00 +9°C° 0 mm 1 mps 725 mmHg 78%
    21:00 +9°C° 0 mm 1 mps 725 mmHg 80%
    22:00 +8°C° 0 mm 1 mps 725 mmHg 81%
    23:00 +8°C° 0 mm 1 mps 725 mmHg 82%

    3 March, Friday

    Time Temperature Precipitation Wind Pressure Humidity
    00:00 +8°C° 0 mm 1 mps 724 mmHg 83%
    01:00 +7°C° 0.1 mm 1 mps 724 mmHg 84%
    02:00 +6°C° 0.1 mm 0 mps 724 mmHg 85%
    03:00 +6°C° 0.1 mm 0 mps 724 mmHg 86%
    04:00 +7°C° 0.1 mm 1 mps 724 mmHg 86%
    05:00 +7°C° 0.1 mm 1 mps 724 mmHg 85%
    06:00 +7°C° 0.1 mm 1 mps 724 mmHg 85%
    07:00 +9°C° 0.1 mm 1 mps 724 mmHg 80%
    08:00 +10°C° 0.1 mm 1 mps 724 mmHg 74%
    09:00 +11°C° 0.1 mm 1 mps 724 mmHg 69%
    10:00 +12°C° 0.1 mm 1 mps 724 mmHg 65%
    11:00 +13°C° 0.1 mm 1 mps 724 mmHg 61%
    12:00 +15°C° 0.1 mm 1 mps 723 mmHg 57%
    13:00 +15°C° 0.1 mm 1 mps 723 mmHg 56%
    14:00 +15°C° 0.1 mm 1 mps 723 mmHg 55%
    15:00 +16°C° 0.1 mm 1 mps 723 mmHg 55%
    16:00 +14°C° 0 mm 1 mps 723 mmHg 60%
    17:00 +12°C° 0 mm 0 mps 723 mmHg 64%
    18:00 +10°C° 0 mm 0 mps 723 mmHg 69%
    19:00 +10°C° 0.1 mm 0 mps 724 mmHg 71%
    20:00 +10°C° 0.1 mm 0 mps 724 mmHg 72%
    21:00 +10°C° 0.1 mm 0 mps 724 mmHg 73%
    22:00 +9°C° 0.1 mm 0 mps 724 mmHg 74%
    23:00 +9°C° 0.1 mm 0 mps 725 mmHg 76%

    4 March, Saturday

    Time Temperature Precipitation Wind Pressure Humidity
    00:00 +9°C° 0.1 mm 0 mps 725 mmHg 77%
    01:00 +10°C° 0.1 mm 1 mps 725 mmHg 78%
    02:00 +9°C° 0.1 mm 1 mps 725 mmHg 78%
    03:00 +9°C° 0.1 mm 1 mps 725 mmHg 79%
    04:00 +9°C° 0.1 mm 1 mps 725 mmHg 79%
    05:00 +9°C° 0.1 mm 1 mps 726 mmHg 80%
    06:00 +9°C° 0.1 mm 1 mps 726 mmHg 80%
    07:00 +10°C° 0.2 mm 1 mps 727 mmHg 76%
    08:00 +11°C° 0.2 mm 1 mps 727 mmHg 72%
    09:00 +12°C° 0.2 mm 1 mps 727 mmHg 68%
    10:00 +13°C° 0.2 mm 1 mps 727 mmHg 66%
    11:00 +13°C° 0.2 mm 1 mps 727 mmHg 63%
    12:00 +14°C° 0.2 mm 1 mps 727 mmHg 60%
    13:00 +14°C° 0.1 mm 1 mps 727 mmHg 60%
    14:00 +14°C° 0.1 mm 1 mps 727 mmHg 59%
    15:00 +15°C° 0.1 mm 1 mps 727 mmHg 59%
    16:00 +14°C° 0.1 mm 1 mps 727 mmHg 62%
    17:00 +13°C° 0.1 mm 1 mps 727 mmHg 66%
    18:00 +12°C° 0.1 mm 1 mps 728 mmHg 70%
    19:00 +11°C° 0.1 mm 1 mps 728 mmHg 73%
    20:00 +11°C° 0.1 mm 1 mps 729 mmHg 75%
    21:00 +10°C° 0.1 mm 1 mps 729 mmHg 77%
    22:00 +10°C° 0.1 mm 1 mps 729 mmHg 79%
    23:00 +9°C° 0.1 mm 1 mps 729 mmHg 81%

    5 March, Sunday

    Time Temperature Precipitation Wind Pressure Humidity
    00:00 +9°C° 0.1 mm 1 mps 729 mmHg 82%
    01:00 +9°C° 0.1 mm 1 mps 729 mmHg 84%
    02:00 +8°C° 0.1 mm 1 mps 729 mmHg 86%
    03:00 +8°C° 0.1 mm 1 mps 729 mmHg 88%
    04:00 +7°C° 0 mm 1 mps 730 mmHg 88%
    05:00 +7°C° 0 mm 1 mps 730 mmHg 89%
    06:00 +7°C° 0 mm 1 mps 730 mmHg 90%
    07:00 +8°C° 0 mm 1 mps 731 mmHg 84%
    08:00 +9°C° 0 mm 1 mps 731 mmHg 78%
    09:00 +11°C° 0 mm 1 mps 731 mmHg 72%
    10:00 +10°C° 0 mm 2 mps 731 mmHg 68%
    11:00 +12°C° 0 mm 2 mps 731 mmHg 65%
    12:00 +13°C° 0 mm 2 mps 731 mmHg 62%
    13:00 +14°C° 0 mm 2 mps 731 mmHg 61%
    14:00 +14°C° 0 mm 2 mps 731 mmHg 60%
    15:00 +14°C° 0 mm 2 mps 730 mmHg 60%
    16:00 +13°C° 0 mm 2 mps 731 mmHg 64%
    17:00 +12°C° 0 mm 2 mps 731 mmHg 69%
    18:00 +10°C° 0 mm 2 mps 731 mmHg 74%
    19:00 +9°C° 0 mm 2 mps 731 mmHg 77%
    20:00 +9°C° 0 mm 2 mps 731 mmHg 79%
    21:00 +8°C° 0 mm 2 mps 732 mmHg 82%
    22:00 +8°C° 0 mm 2 mps 732 mmHg 85%
    23:00 +7°C° 0 mm 2 mps 732 mmHg 87%
    Show more